Simultaneous Nadir Overpasses (SNOs) Predictions

Prediction of SNOs between METOP-B and NOAA-19 Satellite Orbit:

Table of predicted SNOs for the next 14.0 days since TLE Epoch: 4/13/2024
Index Date (METOP-B) Time (METOP-B) Lat,Lon (METOP-B) SZA (METOP-B ) Date (NOAA-19) Time (NOAA-19) Lat,Lon (NOAA-19) SZA (NOAA-19 ) Distance(km) Time Diff (sec)
1 04/21/2024 13:35:43 -78.19, 163.26 113.92 04/21/2024 13:34:41 -78.20, 163.33 113.91 1.94 62
2 04/21/2024 14:26:21 78.28, -28.92 66.18 04/21/2024 14:25:37 78.27, -28.98 66.16 1.86 44
3 04/21/2024 15:17:00 -78.37, 138.90 113.73 04/21/2024 15:16:35 -78.36, 138.79 113.75 3.11 25
4 04/21/2024 16:07:37 78.50, -53.03 66.41 04/21/2024 16:07:29 78.50, -53.04 66.41 0.27 8
5 04/21/2024 16:58:16 -78.59, 114.80 113.50 04/21/2024 16:58:27 -78.58, 114.74 113.51 1.63 11
6 04/21/2024 17:48:53 78.72, -77.10 66.65 04/21/2024 17:49:21 78.72, -77.05 66.66 1.36 28
7 04/21/2024 18:39:32 -78.80, 90.75 113.27 04/21/2024 18:40:19 -78.80, 90.74 113.26 0.15 47



Historial Predications of SNOs between METOP-B and NOAA-19
